Regional Weather Roundup
Issued by NWS

Home | Current Version | Previous Version | Graphics & Text | Print | Product List | Glossary On
Versions: 1 2 3 4 5 6 7 8 9 10 11 12 13 14 15 16 17 18 19 20 21 22 23 24 25 26 27 28 29 30 31 32 33 34 35 36 37 38 39 40 41 42 43 44 45 46 47 48 49 50
000
ASUS43 KOAX 010402
RWRNE

WEATHER ROUNDUP FOR NEBRASKA
NATIONAL WEATHER SERVICE OMAHA NE
1100 PM CDT TUE SEP 30 2014

NOTES: SATELLITE DATA IS BEING USED TO AUGMENT CLOUD COVER ABOVE
       12000 FEET.
       "FAIR" INDICATES FEW OR NO CLOUDS BELOW 12,000 FEET WITH NO
       SIGNIFICANT WEATHER AND/OR OBSTRUCTIONS TO VISIBILITY.

  * THESE STATIONS DO NOT REPORT WEATHER SUCH AS RAIN...SNOW OR FOG.

NEZ001>004-019>022-054>056-010500-
NEBRASKA PANHANDLE

CITY           SKY/WX    TMP DP  RH WIND       PRES   REMARKS
SCOTTSBLUFF    CLOUDY    61  43  51 W13       29.79R
ALLIANCE       CLOUDY    54  44  69 W10       29.77R
CHADRON        CLOUDY    55  50  83 W6        29.75R
KIMBALL        CLOUDY    56  42  59 W9        29.83S
SIDNEY         CLOUDY    60  43  53 W14       29.83S
$$

NEZ057>060-069>072-079>082-010500-
SOUTHWEST NEBRASKA

CITY           SKY/WX    TMP DP  RH WIND       PRES   REMARKS
NORTH PLATTE   CLOUDY    60  50  69 SE5       29.74F
IMPERIAL       CLOUDY    61  48  62 W3        29.76S
LEXINGTON      MOCLDY    56  54  91 E5        29.74S
MCCOOK         CLOUDY    60  52  74 CALM      29.74R
OGALLALA       CLOUDY    57  51  80 CALM      29.77S
$$

NEZ005>010-023>029-035>040-094-010500-
NORTH CENTRAL NEBRASKA

CITY           SKY/WX    TMP DP  RH WIND       PRES   REMARKS
VALENTINE      PTCLDY    51  45  79 S3        29.71R
AINSWORTH      MOCLDY    55  47  73 S7        29.72R
BROKEN BOW     CLOUDY    55  50  83 CALM      29.74R
O`NEILL        MOCLDY    64  62  92 SE8       29.73S
ORD            PTCLDY    61  58  90 SE6       29.72S
THEDFORD       CLOUDY    58  48  69 CALM      29.75R
$$

NEZ041-046>049-061>064-073>077-083>087-010500-
SOUTH CENTRAL NEBRASKA

CITY           SKY/WX    TMP DP  RH WIND       PRES   REMARKS
GRAND ISLAND   CLOUDY    63  61  93 SE9       29.75S FOG
AURORA         FOG       62  62 100 SE10      29.76R VSB 3/4
HASTINGS       FOG       62  60  93 SE12      29.76R VSB 1/2
HEBRON         CLOUDY    66  63  89 E9        29.73F
HOLDREGE       PTCLDY    57  55  92 CALM      29.74S
KEARNEY *      CLOUDY    61  59  94 SE10      29.75S
YORK           CLOUDY    63  63 100 SE10      29.75F FOG
$$

NEZ011>018-030>034-042>045-010500-
NORTHEAST NEBRASKA

CITY           SKY/WX    TMP DP  RH WIND       PRES   REMARKS
NORFOLK        PTCLDY    61  59  93 SE7       29.76S
ALBION         CLOUDY    62  60  93 SE10      29.76R FOG
BLAIR          LGT RAIN  65  63  92 CALM      29.78S
COLUMBUS *     PTCLDY    57  55  94 E3        29.77F
FREMONT        CLOUDY    64  62  94 E6        29.77F
TEKAMAH        CLOUDY    63  61  93 SE6       29.79R FOG
WAYNE          CLOUDY    62  61  96 S10       29.78R FOG
$$

NEZ050>053-065>068-078-088>093-010500-
SOUTHEAST NEBRASKA

CITY           SKY/WX    TMP DP  RH WIND       PRES   REMARKS
LINCOLN        TSTM      65  63  93 SE10      29.76F
OMAHA EPPLEY   LGT RAIN  66  63  90 NW6       29.82R
BEATRICE       CLOUDY    64  63  94 E7        29.76S
FALLS CITY     LGT RAIN  66  65  96 NE3       29.75F
NEBRASKA CITY  TSTM      64  64 100 NE8       29.79S
PLATTSMOUTH    RAIN      64  63  94 CALM      29.81R
$$

NEZ044-045-051>053-067-010500-
OMAHA AREA

CITY           SKY/WX    TMP DP  RH WIND       PRES   REMARKS
OMAHA EPPLEY   LGT RAIN  66  63  90 NW6       29.82R
BLAIR          LGT RAIN  65  63  92 CALM      29.78S
FREMONT        CLOUDY    64  62  94 E6        29.77F
MILLARD        RAIN      66  64  93 SE9       29.78F
OFFUTT AFB     LGT RAIN  66  66 100 E10       29.79S
PLATTSMOUTH    RAIN      64  63  94 CALM      29.81R
WAHOO          CLOUDY    64  61  91 SE8       29.77F
$$


USA.gov is the U.S. government's official web portal to all federal, state and local government web resources and services.